Total_Precipitation_Accumulation
0.00 0.01 0.01 0.01 0.01 0.01 0.01 0.02 0.03 0.03 0.02 0.02 0.01 0.01 0.01 0.01 0.01 0.01 0.01 0.01 0.01 0.01 0.01 0.01 0.02 0.02 0.03 0.02 0.03 0.02 0.02 0.02 0.03 0.03 0.04 0.06 0.10 0.15 0.17 0.17 0.29 0.28 0.14
0.00 0.01 0.01 0.01 0.01 0.01 0.02 0.02 0.02 0.03 0.03 0.02 0.02 0.02 0.01 0.01 0.01 0.01 0.01 0.01 0.01 0.01 0.01 0.01 0.01 0.01 0.01 0.01 0.01 0.01 0.01 0.02 0.03 0.05 0.07 0.08 0.12 0.19 0.17 0.14 0.28 0.21 0.10
0.00 0.01 0.01 0.01 0.01 0.01 0.01 0.02 0.02 0.03 0.02 0.02 0.02 0.02 0.01 0.01 0.00 0.01 0.01 0.01 0.01 0.01 0.01 0.01 0.01 0.00 0.00 0.00 0.00 0.01 0.01 0.02 0.04 0.06 0.14 0.17 0.12 0.18 0.15 0.12 0.13 0.09 0.07
0.00 0.01 0.01 0.01 0.01 0.01 0.01 0.02 0.02 0.02 0.02 0.02 0.02 0.01 0.01 0.01 0.01 0.01 0.01 0.01 0.02 0.02 0.01 0.01 0.00 0.00 0.00 0.00 0.00 0.00 0.01 0.02 0.04 0.05 0.21 0.22 0.09 0.09 0.11 0.09 0.09 0.06 0.05
0.00 0.00 0.01 0.01 0.01 0.01 0.01 0.01 0.01 0.02 0.02 0.02 0.02 0.01 0.01 0.01 0.01 0.01 0.01 0.01 0.02 0.02 0.01 0.01 0.01 0.00 0.00 0.00 0.00 0.01 0.01 0.02 0.03 0.05 0.13 0.13 0.18 0.12 0.08 0.08 0.09 0.06 0.05
0.00 0.00 0.01 0.02 0.02 0.01 0.01 0.01 0.01 0.01 0.02 0.02 0.02 0.02 0.02 0.03 0.02 0.02 0.01 0.02 0.02 0.02 0.01 0.01 0.01 0.00 0.00 0.00 0.00 0.01 0.01 0.02 0.03 0.04 0.09 0.11 0.22 0.18 0.11 0.16 0.14 0.10 0.06
0.00 0.00 0.01 0.02 0.03 0.02 0.02 0.02 0.02 0.02 0.02 0.02 0.02 0.02 0.02 0.03 0.03 0.02 0.02 0.02 0.03 0.02 0.02 0.01 0.01 0.01 0.00 0.00 0.00 0.00 0.01 0.03 0.04 0.07 0.14 0.21 0.27 0.22 0.22 0.39 0.41 0.29 0.16
0.01 0.01 0.02 0.03 0.03 0.03 0.03 0.03 0.03 0.03 0.03 0.03 0.02 0.02 0.02 0.03 0.03 0.02 0.02 0.02 0.04 0.05 0.04 0.02 0.01 0.01 0.01 0.01 0.01 0.01 0.02 0.04 0.04 0.05 0.09 0.18 0.24 0.27 0.42 0.64 0.66 0.52 0.37
0.01 0.01 0.02 0.03 0.04 0.04 0.04 0.04 0.04 0.04 0.04 0.04 0.04 0.04 0.04 0.04 0.04 0.04 0.04 0.03 0.04 0.06 0.06 0.05 0.03 0.02 0.02 0.02 0.02 0.03 0.04 0.05 0.06 0.06 0.07 0.11 0.14 0.20 0.46 0.66 0.61 0.54 0.45
0.02 0.02 0.02 0.04 0.05 0.06 0.05 0.06 0.06 0.05 0.05 0.05 0.05 0.05 0.05 0.06 0.06 0.07 0.07 0.07 0.07 0.09 0.09 0.09 0.08 0.07 0.08 0.08 0.08 0.08 0.09 0.07 0.04 0.04 0.07 0.10 0.15 0.30 0.59 0.74 0.66 0.59 0.52
0.02 0.02 0.02 0.03 0.05 0.05 0.05 0.05 0.06 0.07 0.08 0.07 0.08 0.07 0.08 0.09 0.14 0.19 0.22 0.26 0.24 0.25 0.24 0.21 0.22 0.22 0.20 0.13 0.17 0.28 0.20 0.05 0.04 0.04 0.05 0.07 0.19 0.45 0.74 0.85 0.81 0.73 0.64
0.04 0.04 0.04 0.04 0.05 0.06 0.05 0.07 0.09 0.09 0.11 0.10 0.12 0.18 0.21 0.26 0.25 0.17 0.32 0.43 0.46 0.56 0.54 0.51 0.68 0.57 0.40 0.28 0.55 0.96 0.37 0.14 0.11 0.10 0.09 0.14 0.34 0.64 0.91 0.91 0.84 0.78 0.72
0.08 0.06 0.07 0.08 0.10 0.10 0.10 0.09 0.10 0.12 0.22 0.21 0.21 0.30 0.45 0.46 0.35 0.24 0.30 0.50 0.71 0.91 0.85 0.96 1.14 0.82 0.74 0.80 0.91 0.96 0.58 0.40 0.28 0.28 0.33 0.45 0.69 0.95 1.10 1.00 0.90 0.86 0.81
0.15 0.16 0.20 0.19 0.21 0.22 0.24 0.25 0.24 0.28 0.37 0.40 0.51 0.57 0.74 0.77 0.67 0.57 0.57 0.64 0.86 1.05 1.35 1.40 1.33 1.26 1.23 1.15 1.10 0.93 0.78 0.75 0.52 0.56 0.68 0.71 0.86 1.06 1.24 1.17 1.03 0.98 0.94
0.32 0.44 0.52 0.49 0.52 0.59 0.63 0.64 0.54 0.57 0.59 0.63 0.76 0.85 1.08 1.24 1.18 1.16 1.09 1.03 0.95 1.10 1.40 1.60 1.57 1.62 1.59 1.50 1.33 1.15 0.98 0.93 0.87 0.93 0.96 1.11 1.22 1.20 1.24 1.30 1.21 1.08 0.99
0.55 0.74 0.89 0.97 1.11 1.12 1.05 1.05 1.03 0.86 0.78 0.79 0.95 1.10 1.31 1.49 1.68 1.75 1.64 1.48 1.20 1.19 1.27 1.55 1.68 1.87 1.78 1.64 1.16 1.08 1.11 1.14 1.14 1.10 1.11 1.52 1.63 1.30 1.16 1.15 1.18 1.14 1.07
0.92 1.10 1.27 1.47 1.65 1.63 1.50 1.37 1.23 1.11 1.08 1.19 1.30 1.35 1.55 1.76 1.93 1.93 1.68 1.37 1.21 1.34 1.42 1.35 1.37 1.66 1.48 1.35 1.17 1.26 1.29 1.23 1.18 1.14 1.14 1.39 1.50 1.24 0.99 0.90 0.96 1.00 1.05
1.24 1.37 1.59 1.75 1.88 1.94 1.88 1.84 1.62 1.44 1.46 1.45 1.43 1.43 1.53 1.71 1.74 1.74 1.38 1.03 1.14 1.37 1.45 1.39 1.33 1.41 1.38 1.44 1.44 1.43 1.40 1.25 1.03 0.96 0.85 0.80 0.90 0.81 0.84 0.95 0.88 0.83 0.96
1.63 1.93 2.18 2.30 2.21 2.24 2.23 2.20 2.04 1.84 1.63 1.46 1.45 1.41 1.32 1.27 1.32 1.40 1.10 0.94 1.11 1.26 1.28 1.25 1.37 1.46 1.34 1.41 1.47 1.35 1.11 0.96 0.80 0.69 0.63 0.55 0.53 0.53 0.54 0.70 0.75 0.79 0.97
1.94 2.41 2.74 2.76 2.56 2.29 2.06 1.80 1.75 1.67 1.59 1.48 1.40 1.28 1.15 1.06 1.08 1.24 1.12 1.00 1.13 1.21 1.14 1.28 1.38 1.46 1.26 1.23 1.21 0.96 0.77 0.57 0.52 0.46 0.37 0.38 0.38 0.35 0.41 0.52 0.70 0.66 0.87
2.11 2.58 2.78 2.73 2.27 1.79 1.60 1.41 1.31 1.20 1.17 1.22 1.23 1.18 1.13 1.04 1.03 1.17 1.07 0.98 0.97 0.99 0.95 1.10 1.21 1.20 0.99 1.20 1.34 0.88 0.60 0.47 0.39 0.29 0.25 0.26 0.26 0.29 0.40 0.52 0.65 0.66 0.78
1.97 2.46 2.50 2.04 1.57 1.28 1.13 1.01 0.90 0.88 0.87 0.86 0.83 0.81 0.80 0.82 0.86 0.94 0.91 0.82 0.78 0.80 0.79 0.87 1.00 1.00 0.88 1.16 1.29 1.13 0.79 0.58 0.46 0.30 0.27 0.26 0.27 0.35 0.41 0.46 0.62 0.74 0.82
1.73 1.77 1.47 1.17 0.91 0.72 0.62 0.57 0.60 0.58 0.57 0.52 0.46 0.46 0.52 0.58 0.59 0.59 0.60 0.64 0.68 0.69 0.70 0.76 0.91 1.03 0.90 0.93 1.16 1.27 1.00 0.68 0.59 0.46 0.45 0.47 0.47 0.52 0.57 0.67 0.76 0.82 0.89
1.16 1.00 0.82 0.71 0.60 0.54 0.54 0.48 0.53 0.48 0.43 0.39 0.34 0.34 0.39 0.42 0.42 0.41 0.43 0.53 0.60 0.66 0.70 0.65 0.70 0.86 0.91 0.83 0.93 1.04 1.06 1.06 0.98 0.70 0.52 0.49 0.54 0.55 0.57 0.62 0.70 0.78 0.82
0.62 0.57 0.47 0.55 0.61 0.56 0.53 0.47 0.43 0.37 0.32 0.29 0.31 0.34 0.39 0.42 0.41 0.38 0.37 0.39 0.49 0.57 0.64 0.66 0.68 0.73 0.80 0.78 0.79 0.85 0.92 1.01 1.00 0.91 0.67 0.51 0.51 0.50 0.57 0.61 0.68 0.73 0.77
0.27 0.27 0.27 0.34 0.44 0.43 0.42 0.41 0.38 0.35 0.33 0.30 0.29 0.30 0.32 0.36 0.38 0.38 0.38 0.40 0.42 0.43 0.46 0.53 0.59 0.64 0.69 0.72 0.72 0.79 0.88 0.86 0.86 0.96 0.84 0.67 0.62 0.57 0.65 0.71 0.81 0.89 0.89